Lakeville, MN

10:06 PM CDT on May 25, 2017 (GMT -0500)
Airlake

Weather History for KLVN - February, 2012

Change the Weather History Date:

Tuesday, February 14, 2012

  Actual Average Record
Temperature  
Mean Temperature 26 °F -  
Max Temperature 32 °F 27 °F 50 °F (1954)
Min Temperature 21 °F 10 °F -21 °F (1951)
Degree Days  
Heating Degree Days 38    
Moisture  
Dew Point 24 °F    
Average Humidity 89    
Maximum Humidity 100    
Minimum Humidity 80    
Precipitation  
Precipitation 0.00 in - - ()
Sea Level Pressure  
Sea Level Pressure 29.73 in    
Wind  
Wind Speed 3 mph (South)    
Max Wind Speed 13 mph    
Max Gust Speed -    
Visibility 8 miles    
Events Snow    
Averages and records for this station are not official NWS values.
T = Trace of Precipitation, MM = Missing Value Source: NWS Daily Summary

Daily Weather History Graph

Daily Weather History Graph

Search for Another Location

Airport or City:

Trip Planner

Search our weather history database for the weather conditions in past years. The results will help you decide how hot, cold, wet, or windy it might be!

Date:

Astronomy

Feb. 14, 2012 Rise Set
Actual Time 7:15 AM CST 5:39 PM CST
Civil Twilight 6:45 AM CST 6:09 PM CST
Nautical Twilight 6:11 AM CST 6:43 PM CST
Astronomical Twilight 5:37 AM CST 7:17 PM CST
Moon 1:06 AM CST (2/14) 10:39 AM CST (2/14)
Length of Visible Light 11h 24m
Length of Day
10h 24m
Waning Gibbous, 50% of the Moon is Illuminated
Feb 14
Waning Gibbous
Feb 21
New
Feb 29
First Quarter
Mar 8
Full
Mar 14
Last Quarter

Hourly Weather History & Observations

Time (CST) Temp. Windchill Dew Point Humidity Pressure Visibility Wind Dir Wind Speed Gust Speed Precip Events Conditions
12:05 AM 23.0 °F - 23.0 °F 100% 29.73 in 5.0 mi Calm Calm - N/A   Overcast
12:24 AM 24.8 °F - 24.8 °F 100% 29.72 in 5.0 mi Calm Calm - N/A   Overcast
12:45 AM 24.8 °F - 24.8 °F 100% 29.72 in 5.0 mi Calm Calm - N/A   Overcast
1:04 AM 24.8 °F - 24.8 °F 100% 29.72 in 7.0 mi Calm Calm - N/A   Overcast
1:24 AM 24.8 °F - 24.8 °F 100% 29.71 in 7.0 mi Calm Calm - N/A   Unknown
1:45 AM 24.8 °F 20.5 °F 24.8 °F 100% 29.72 in 7.0 mi West 3.5 mph - N/A   Unknown
2:04 AM 24.8 °F - 24.8 °F 100% 29.72 in 5.0 mi Calm Calm - N/A   Overcast
2:25 AM 24.8 °F - 24.8 °F 100% 29.72 in 5.0 mi Calm Calm - N/A   Overcast
2:44 AM 24.8 °F - 24.8 °F 100% 29.72 in 7.0 mi Calm Calm - N/A   Overcast
3:05 AM 24.8 °F - 23.0 °F 93% 29.71 in 10.0 mi Calm Calm - N/A   Overcast
3:24 AM 24.8 °F - 23.0 °F 93% 29.71 in 10.0 mi Calm Calm - N/A   Overcast
3:45 AM 24.8 °F - 21.2 °F 86% 29.71 in 10.0 mi Calm Calm - N/A   Overcast
4:05 AM 24.8 °F - 21.2 °F 86% 29.72 in 10.0 mi Calm Calm - N/A   Overcast
4:24 AM 24.8 °F - 21.2 °F 86% 29.72 in 10.0 mi Calm Calm - N/A   Overcast
4:45 AM 24.8 °F - 21.2 °F 86% 29.72 in 10.0 mi Calm Calm - N/A   Overcast
5:05 AM 24.8 °F 16.9 °F 21.2 °F 86% 29.72 in 7.0 mi WSW 6.9 mph - N/A   Overcast
5:24 AM 24.8 °F 19.1 °F 23.0 °F 93% 29.73 in 7.0 mi WSW 4.6 mph - N/A   Overcast
5:45 AM 23.0 °F - 21.2 °F 93% 29.72 in 5.0 mi Calm Calm - N/A   Overcast
6:05 AM 21.2 °F 14.9 °F 21.2 °F 100% 29.73 in 3.0 mi WSW 4.6 mph - N/A   Overcast
6:24 AM 21.2 °F 16.4 °F 21.2 °F 100% 29.74 in 2.0 mi SW 3.5 mph - N/A   Overcast
6:45 AM 21.2 °F - 21.2 °F 100% 29.74 in 2.5 mi Calm Calm - N/A   Overcast
7:04 AM 21.2 °F - 21.2 °F 100% 29.74 in 4.0 mi Calm Calm - N/A   Overcast
7:25 AM 23.0 °F 18.4 °F 21.2 °F 93% 29.75 in 7.0 mi SW 3.5 mph - N/A   Overcast
7:45 AM 23.0 °F - 21.2 °F 93% 29.75 in 7.0 mi Calm Calm - N/A   Overcast
8:04 AM 23.0 °F - 21.2 °F 93% 29.75 in 7.0 mi Calm Calm - N/A   Overcast
8:25 AM 23.0 °F - 21.2 °F 93% 29.75 in 7.0 mi Calm Calm - N/A   Overcast
8:44 AM 24.8 °F 19.1 °F 21.2 °F 86% 29.75 in 7.0 mi South 4.6 mph - N/A   Overcast
9:05 AM 24.8 °F 19.1 °F 21.2 °F 86% 29.76 in 10.0 mi South 4.6 mph - N/A   Overcast
9:25 AM 24.8 °F 19.1 °F 21.2 °F 86% 29.75 in 10.0 mi South 4.6 mph - N/A   Overcast
9:44 AM 26.6 °F - 21.2 °F 80% 29.76 in 10.0 mi North - - N/A   Overcast
10:05 AM 26.6 °F 18.2 °F 21.2 °F 80% 29.75 in 10.0 mi South 8.1 mph - N/A   Overcast
10:24 AM 26.6 °F 19.1 °F 21.2 °F 80% 29.75 in 10.0 mi SSW 6.9 mph - N/A   Overcast
10:44 AM 28.4 °F 22.2 °F 23.0 °F 80% 29.75 in 10.0 mi South 5.8 mph - N/A   Mostly Cloudy
11:05 AM 28.4 °F 22.2 °F 23.0 °F 80% 29.74 in 10.0 mi South 5.8 mph - N/A   Scattered Clouds
11:25 AM 28.4 °F 19.7 °F 23.0 °F 80% 29.75 in 10.0 mi South 9.2 mph - N/A   Scattered Clouds
11:45 AM 28.4 °F 21.2 °F 23.0 °F 80% 29.75 in 10.0 mi South 6.9 mph - N/A   Scattered Clouds
12:04 PM 28.4 °F 21.2 °F 24.8 °F 86% 29.74 in 10.0 mi South 6.9 mph - N/A   Scattered Clouds
12:24 PM 30.2 °F 22.6 °F 24.8 °F 80% 29.74 in 10.0 mi South 8.1 mph - N/A   Clear
12:45 PM 30.2 °F 23.4 °F 24.8 °F 80% 29.73 in 10.0 mi South 6.9 mph - N/A   Clear
1:04 PM 30.2 °F 23.4 °F 24.8 °F 80% 29.73 in 10.0 mi South 6.9 mph - N/A   Scattered Clouds
1:24 PM 30.2 °F 23.4 °F 26.6 °F 86% 29.73 in 10.0 mi South 6.9 mph - N/A   Scattered Clouds
1:45 PM 30.2 °F 21.9 °F 26.6 °F 86% 29.72 in 10.0 mi South 9.2 mph - N/A   Clear
2:04 PM 30.2 °F 22.6 °F 26.6 °F 86% 29.71 in 10.0 mi SSE 8.1 mph - N/A   Clear
2:25 PM 30.2 °F 22.6 °F 24.8 °F 80% 29.71 in 10.0 mi SSE 8.1 mph - N/A   Scattered Clouds
2:44 PM 32.0 °F - 26.6 °F 80% 29.71 in 10.0 mi North - - N/A   Scattered Clouds
3:05 PM 32.0 °F 24.8 °F 26.6 °F 80% 29.71 in 10.0 mi SSE 8.1 mph - N/A   Mostly Cloudy
3:24 PM 30.2 °F 21.9 °F 26.6 °F 86% 29.71 in 4.0 mi SE 9.2 mph - N/A Snow Light Snow
3:45 PM 30.2 °F 20.2 °F 26.6 °F 86% 29.71 in 10.0 mi SE 12.7 mph - N/A   Scattered Clouds
4:05 PM 30.2 °F 21.9 °F 26.6 °F 86% 29.71 in 7.0 mi SSE 9.2 mph - N/A   Mostly Cloudy
4:24 PM 30.2 °F 23.4 °F 26.6 °F 86% 29.71 in 7.0 mi SSE 6.9 mph - N/A   Mostly Cloudy
4:45 PM 30.2 °F 21.9 °F 26.6 °F 86% 29.71 in 7.0 mi SSE 9.2 mph - N/A   Mostly Cloudy
5:05 PM 30.2 °F 22.6 °F 26.6 °F 86% 29.71 in 7.0 mi SSE 8.1 mph - N/A   Overcast
5:24 PM 30.2 °F 22.6 °F 26.6 °F 86% 29.72 in 5.0 mi SSE 8.1 mph - N/A   Overcast
5:45 PM 28.4 °F 21.2 °F 26.6 °F 93% 29.73 in 5.0 mi SSE 6.9 mph - N/A   Scattered Clouds
6:05 PM 28.4 °F 23.3 °F 26.6 °F 93% 29.73 in 5.0 mi SSE 4.6 mph - N/A   Scattered Clouds
6:24 PM 28.4 °F 23.3 °F 26.6 °F 93% 29.74 in 7.0 mi SSE 4.6 mph - N/A   Mostly Cloudy
6:45 PM 28.4 °F 24.6 °F 26.6 °F 93% 29.74 in 7.0 mi SSE 3.5 mph - N/A   Overcast
7:04 PM 28.4 °F 24.6 °F 26.6 °F 93% 29.74 in 7.0 mi SE 3.5 mph - N/A   Unknown
7:24 PM 28.4 °F - 26.6 °F 93% 29.75 in 7.0 mi Calm Calm - N/A Snow Light Snow
7:45 PM 28.4 °F 24.6 °F 26.6 °F 93% 29.75 in 7.0 mi ESE 3.5 mph - N/A   Overcast
8:05 PM 28.4 °F - 26.6 °F 93% 29.75 in 7.0 mi Calm Calm - N/A   Overcast
8:24 PM 26.6 °F - 26.6 °F 100% 29.75 in 7.0 mi Calm Calm - N/A   Overcast
8:45 PM 26.6 °F - 26.6 °F 100% 29.75 in 7.0 mi Calm Calm - N/A   Overcast
9:04 PM 28.4 °F 24.6 °F 26.6 °F 93% 29.75 in 7.0 mi SSE 3.5 mph - N/A   Unknown
9:24 PM 28.4 °F - 26.6 °F 93% 29.76 in 7.0 mi Calm Calm - N/A   Unknown
9:45 PM 30.2 °F - 28.4 °F 93% 29.76 in 7.0 mi Calm Calm - N/A   Overcast
10:04 PM 30.2 °F 26.7 °F 28.4 °F 93% 29.77 in 7.0 mi SW 3.5 mph - N/A   Overcast
10:25 PM 30.2 °F 26.7 °F 26.6 °F 86% 29.77 in 10.0 mi SSW 3.5 mph - N/A   Scattered Clouds
10:44 PM 28.4 °F 24.6 °F 26.6 °F 93% 29.77 in 10.0 mi SSW 3.5 mph - N/A   Clear
11:04 PM 28.4 °F - 26.6 °F 93% 29.77 in 10.0 mi Calm Calm - N/A   Clear
11:25 PM 28.4 °F 24.6 °F 24.8 °F 86% 29.78 in 7.0 mi SSW 3.5 mph - N/A   Clear
11:45 PM 26.6 °F 22.6 °F 24.8 °F 93% 29.78 in 7.0 mi SSW 3.5 mph - N/A   Clear